Weather History for Chicago, IL

Change the Weather History Date:

Friday, February 7, 2014

  Actual Average Record
Temperature  
Mean Temperature 4 °F 25 °F  
Max Temperature 11 °F 33 °F 59 °F (1925)
Min Temperature -4 °F 18 °F -10 °F (1875)
Degree Days  
Heating Degree Days 61 40  
Month to date heating degree days 368 281  
Since 1 July heating degree days 4455 3971  
Cooling Degree Days 0 0  
Month to date cooling degree days 0 0  
Year to date cooling degree days 0 0  
Moisture  
Dew Point -7 °F    
Average Humidity 61    
Maximum Humidity 71    
Minimum Humidity 50    
Precipitation  
Precipitation 0.00 in 0.06 in 1.34 in (1881)
Month to date precipitation 0.86 0.36  
Year to date precipitation 3.68 2.09  
Snow  
Snow 0.00 in 0.40 in 8.60 in (1933)
Month to date snowfall 10.8 2.5  
Since 1 July snowfall 59.6 23.0  
Snow Depth 11.00 in    
Sea Level Pressure  
Sea Level Pressure 30.38 in    
Wind  
Wind Speed 11 mph (WSW)    
Max Wind Speed 21 mph    
Max Gust Speed 26 mph    
Visibility 10 miles    
Events      
T = Trace of Precipitation, MM = Missing Value Source: NWS Daily Summary

Daily Weather History Graph

Daily Weather History Graph

Search for Another Location

Airport:

Trip Planner

Search our weather history database for the weather conditions in past years. The results will help you decide how hot, cold, wet, or windy it might be!

Date:

Astronomy

Feb. 07, 2014 Rise Set
Actual Time 6:57 AM CST 5:14 PM CST
Civil Twilight 6:28 AM CST 5:43 PM CST
Nautical Twilight 5:55 AM CST 6:16 PM CST
Astronomical Twilight 5:23 AM CST 6:49 PM CST
Moon 11:24 AM CST (2/7) 1:14 AM CST (2/7)
Length of Visible Light 11h 14m
Length of Day
10h 16m
First Quarter, 59% of the Moon is Illuminated
Feb 7
First Quarter
Feb 14
Full
Feb 22
Last Quarter
Mar 1
New
Mar 8
First Quarter

Hourly Weather History & Observations

Time (CST) Temp. Windchill Dew Point Humidity Pressure Visibility Wind Dir Wind Speed Gust Speed Precip Events Conditions
12:51 AM -0.9 °F -14.1 °F -9.9 °F 66% 30.41 in 10.0 mi WSW 6.9 mph - N/A   Mostly Cloudy
1:51 AM -2.0 °F -15.4 °F -11.0 °F 66% 30.40 in 10.0 mi WSW 6.9 mph - N/A   Partly Cloudy
2:51 AM -2.9 °F -15.0 °F -11.0 °F 68% 30.38 in 10.0 mi West 5.8 mph - N/A   Partly Cloudy
3:51 AM -2.9 °F -16.5 °F -11.0 °F 68% 30.37 in 10.0 mi West 6.9 mph - N/A   Partly Cloudy
4:51 AM -2.9 °F -15.0 °F -11.0 °F 68% 30.37 in 10.0 mi WSW 5.8 mph - N/A   Partly Cloudy
5:51 AM -2.9 °F -16.5 °F -11.0 °F 68% 30.38 in 10.0 mi WSW 6.9 mph - N/A   Partly Cloudy
6:51 AM -2.9 °F -19.8 °F -11.0 °F 68% 30.40 in 10.0 mi WSW 10.4 mph - N/A   Partly Cloudy
7:51 AM -2.0 °F -16.6 °F -9.0 °F 72% 30.42 in 10.0 mi WSW 8.1 mph - N/A   Partly Cloudy
8:51 AM 1.0 °F -14.0 °F -8.0 °F 66% 30.41 in 10.0 mi WSW 9.2 mph - N/A   Clear
9:51 AM 3.9 °F -13.0 °F -7.1 °F 60% 30.42 in 10.0 mi WSW 12.7 mph - N/A   Clear
10:51 AM 7.0 °F -10.4 °F -6.0 °F 55% 30.42 in 10.0 mi WSW 15.0 mph 24.2 mph N/A   Clear
11:51 AM 8.1 °F -10.7 °F -6.0 °F 53% 30.41 in 10.0 mi WSW 18.4 mph 23.0 mph N/A   Clear
12:51 PM 10.0 °F -7.6 °F -5.1 °F 51% 30.38 in 10.0 mi WSW 17.3 mph - N/A   Clear
1:51 PM 10.0 °F -8.1 °F -5.1 °F 51% 30.38 in 10.0 mi WSW 18.4 mph 25.3 mph N/A   Clear
2:51 PM 10.9 °F -4.1 °F -4.0 °F 51% 30.38 in 10.0 mi West 12.7 mph - N/A   Partly Cloudy
3:51 PM 10.9 °F -6.5 °F -4.0 °F 51% 30.37 in 10.0 mi WSW 17.3 mph 26.5 mph N/A   Partly Cloudy
4:51 PM 10.9 °F -0.8 °F -4.0 °F 51% 30.36 in 10.0 mi WSW 8.1 mph - N/A   Partly Cloudy
5:51 PM 9.0 °F -6.6 °F -4.0 °F 56% 30.36 in 10.0 mi SSW 12.7 mph - N/A   Partly Cloudy
6:51 PM 8.1 °F -7.0 °F -5.1 °F 55% 30.37 in 10.0 mi SSW 11.5 mph - N/A   Partly Cloudy
7:51 PM 6.1 °F -8.7 °F -5.1 °F 60% 30.36 in 10.0 mi SW 10.4 mph - N/A   Scattered Clouds
8:51 PM 8.1 °F -5.3 °F -2.9 °F 61% 30.36 in 10.0 mi SW 9.2 mph - N/A   Mostly Cloudy
9:51 PM 9.0 °F -3.2 °F -2.9 °F 59% 30.36 in 10.0 mi SW 8.1 mph - N/A   Overcast
10:51 PM 9.0 °F -2.2 °F -2.9 °F 59% 30.36 in 10.0 mi SW 6.9 mph - N/A   Overcast
11:51 PM 8.1 °F -3.2 °F -2.9 °F 61% 30.36 in 10.0 mi SW 6.9 mph - N/A   Mostly Cloudy